Tracking 33068 objects as of 24-Jan-2026
HD Live streaming from Space Station
objects crossing your sky now

STARLINK-33835

Track STARLINK-33835 now!
10-day predictions
STARLINK-33835 is classified as:


NORAD ID: 63645
Int'l Code: 2025-083M
Perigee: 488.8 km
Apogee: 491.4 km
Inclination: 43.0 °
Period: 94.3 minutes
Semi major axis: 6861 km
RCS: Unknown
Launch date: April 25, 2025
Source: United States (US)
Launch site: AIR FORCE EASTERN TEST RANGE (AFETR)
Your satellite tracking list
Your tracking list is empty




NASA's NSSDC Master Catalog

Two Line Element Set (TLE):
1 63645U 25083M   26024.34230884  .00089683  00000-0  32259-2 0  9995
2 63645  42.9984 255.7286 0001896 277.3260  82.7376 15.27612374 43310
Source of the keplerian elements: AFSPC